[[{"header":{"parameterUnit":"m.s-1","parameterCategory":1,"la1":30.2991,"la2":30.254,"lo1":-89.0895,"lo2":-89.0444,"dy":0.0017,"dx":0.0017,"nx":28,"ny":28,"refTime":"2025-07-14T03:00:00:Z","depth":0,"parameterNumber":2,"parameterNumberName":"U-component_of_WINDS"},"data":[0,0,0,0,0,0,0,0,0,0,0,0,0,0,0,0,0,0,0,0,0,0,0,0,0,0,0,0,0,0,0,0,0,0,0,0,0,0,0,0,0,0,0,0,0,0,0,0,0,0,0,0,0,0,0,0,0,0,3.1865,3.1867,0,3.1977,3.1978,3.198,3.1948,3.1946,3.1944,3.1942,3.2056,3.2061,3.2066,0,0,0,0,0,0,0,0,0,0,0,0,0,3.1624,3.1628,3.1865,3.1867,3.1868,3.1977,3.1978,3.198,3.1949,3.1946,3.1943,3.1941,3.2054,3.206,3.2066,0,0,0,0,0,0,0,0,0,0,0,0,0,3.1731,3.163,3.1865,3.1866,3.1867,3.1976,3.1978,3.198,3.1949,3.1946,3.1943,3.1939,3.2052,3.206,3.2067,3.2183,0,0,3.2091,3.2094,0,0,0,0,0,0,0,0,3.1725,3.174,3.1864,3.1866,3.1867,3.1945,3.1935,3.2048,3.195,3.1918,3.1942,3.1938,3.2022,3.2032,3.206,3.2188,3.2193,3.2092,3.2096,3.21,3.2102,0,0,0,0,0,0,0,3.1718,3.1735,3.1909,3.1866,3.1868,3.186,3.1871,3.1956,3.1988,3.1921,3.1919,3.1932,3.2022,3.2053,3.2063,3.2195,3.2091,3.2098,3.2103,3.2106,3.242,3.2424,0,0,0,0,0,0,3.1709,3.1729,3.1906,3.1913,3.1787,3.1867,3.188,3.1924,3.1987,3.1993,3.1935,3.193,3.2041,3.2054,3.2067,3.2203,3.2099,3.2107,3.2111,3.2416,3.2421,3.2425,0,0,0,0,0,0,3.1704,3.1725,3.1901,3.1821,3.1842,3.1875,3.1924,3.1928,3.1958,3.1998,3.2003,3.1961,3.2039,3.2056,3.2153,3.2207,3.211,3.2117,3.2412,3.2418,3.2423,3.248,0,0,0,0,0,0,3.1698,3.1724,3.1769,3.1822,3.1847,3.1987,3.1928,3.1932,3.1972,3.1967,3.2023,3.2029,3.2038,3.2142,3.2161,3.2216,3.2123,3.2407,3.2415,3.2421,3.2473,3.2486,3.2498,0,0,0,0,0,3.1689,3.1781,3.1771,3.1792,3.1903,3.199,3.2004,3.2012,3.1976,3.2021,3.2046,3.2027,3.2199,3.2152,3.2174,3.2231,3.2404,3.2412,3.2421,3.2467,3.2484,3.2498,0,0,0,0,0,0,3.1733,3.1788,3.1778,3.1889,3.1935,3.1985,3.2041,3.203,3.2087,3.208,3.2088,3.2101,3.22,3.2226,3.2173,3.2345,3.2296,3.2309,3.2324,3.234,3.2352,3.2343,3.213,0,0,0,0,0,3.1756,3.1822,3.1866,3.1961,3.1984,3.2009,3.2047,3.2049,3.2097,3.2116,3.2149,3.2196,3.2259,3.2302,3.2363,3.2477,3.2488,3.2527,3.254,3.255,3.256,3.262,3.2637,3.2452,3.2452,3.2452,0,0,3.1803,3.1841,3.1883,3.197,3.2006,3.2073,3.2026,3.21,3.2149,3.2128,3.2221,3.2247,3.2299,3.2405,3.2453,3.243,3.2614,3.256,3.2568,3.2573,3.263,3.2647,3.2663,3.2458,3.2457,3.2456,0,0,3.1924,3.196,3.2041,3.2078,3.2133,3.2149,3.2168,3.222,3.2235,3.2329,3.2314,3.2373,3.2484,3.2521,3.2555,3.2688,3.2672,3.2708,3.2772,3.283,3.2845,3.2857,3.2902,3.2919,3.2719,3.2719,3.2719,0,3.1975,3.2077,3.2085,3.2159,3.2197,3.2181,3.2262,3.2297,3.237,3.2396,3.2368,3.2506,3.2541,3.2653,3.2685,3.2714,3.2735,3.2701,3.2842,3.2855,3.2867,3.291,3.2927,3.2723,3.2722,3.2722,3.2722,0,3.2137,3.2207,3.2266,3.2335,3.238,3.2458,3.2476,3.2521,3.2519,3.2537,3.2632,3.2673,3.2741,3.2769,3.2768,3.2881,3.2864,3.284,3.279,3.2888,3.2928,3.2945,3.2728,3.2727,3.2726,3.2725,0,0,3.2287,3.2359,3.238,3.241,3.2469,3.2523,3.26,3.2666,3.2702,3.2753,3.2816,3.291,3.2886,3.2925,3.2928,3.298,3.3079,3.2948,3.295,3.2969,3.3202,3.3218,3.3237,3.307,3.3073,3.3076,3.3197,0,3.241,3.2544,3.2553,3.2674,3.2738,3.2723,3.2789,3.2832,3.2851,3.2907,3.2928,3.2993,3.296,3.2982,3.3032,3.3056,3.3125,3.3048,3.3126,3.3129,3.3111,3.3259,3.3277,3.3389,3.3213,3.3216,3.3218,0,3.2572,3.2626,3.2753,3.2801,3.2828,3.2887,3.2947,3.3002,3.305,3.306,3.3102,3.3098,3.3175,3.3124,3.3229,3.3176,3.3209,3.3225,3.323,3.3235,3.3177,3.3266,3.3426,3.3441,3.3243,3.3241,3.3239,0,3.2665,3.277,3.2859,3.2886,3.2944,3.2986,3.3012,3.3056,3.3095,3.3148,3.3173,3.3234,3.3267,3.3315,3.3327,3.3289,3.3431,3.3382,3.3439,3.3439,3.3468,3.3465,3.3633,3.3494,3.3494,3.3493,3.3493,0,3.28,3.2878,3.2901,3.2955,3.3041,3.305,3.3135,3.3159,3.3198,3.3256,3.3248,3.3302,3.3316,3.3373,3.3383,3.3467,3.3483,3.3492,3.3493,3.3491,3.349,3.3511,3.3502,3.3498,3.3497,3.3496,3.3495,0,3.2918,3.2937,3.3032,3.308,3.3093,3.3154,3.3194,3.3246,3.3264,3.3337,3.3355,3.3383,3.3449,3.3466,3.3546,3.3553,3.3651,3.3646,3.3634,3.3633,3.3689,3.3682,3.3873,3.3898,3.3746,3.3747,3.3748,0,3.3001,3.306,3.3114,3.3152,3.318,3.3242,3.328,3.3291,3.3332,3.339,3.3434,3.3499,3.3552,3.3658,3.3685,3.3745,3.374,3.3803,3.3749,3.3744,3.3738,3.3733,3.3737,3.3812,3.3814,3.3815,3.3816,0,3.3147,3.3153,3.3209,3.3269,3.3315,3.3363,3.3408,3.344,3.3457,3.3503,3.357,3.3611,3.3692,3.3755,3.3816,3.3842,3.3832,3.3833,3.3849,3.3846,3.3836,3.3839,3.3659,3.3828,3.3827,3.3826,3.3826,3.3825,3.3248,3.3299,3.3343,3.3406,3.3441,3.3484,3.3534,3.3557,3.3614,3.3679,3.3683,3.3755,3.38,3.388,3.3909,3.3965,3.3946,3.3971,3.3976,3.3981,3.3984,3.3829,3.3977,3.3977,3.3976,3.3976,3.3976,0,3.339,3.3418,3.3476,3.3539,3.3588,3.3574,3.3623,3.3665,3.3728,3.3771,3.3822,3.3898,3.396,3.3992,3.4052,3.4091,3.4088,3.4106,3.4102,3.4108,3.3999,3.3978,3.4108,3.4108,3.4108,3.4108,3.4108,3.4108,3.347,3.3554,3.3565,3.3666,3.3694,3.3764,3.3793,3.3831,3.3865,3.395,3.4001,3.4021,3.4059,3.4122,3.4177,3.4185,3.4206,3.4227,3.4232,3.413,3.4116,3.4103,3.4083,3.4233,3.4233,3.4336,3.4336,3.4337]},{"header":{"parameterUnit":"m.s-1","parameterCategory":1,"la1":30.2991,"la2":30.254,"lo1":-89.0895,"lo2":-89.0444,"dy":0.0017,"dx":0.0017,"nx":28,"ny":28,"refTime":"2025-07-14T03:00:00:Z","depth":0,"parameterNumber":3,"parameterNumberName":"V-component_of_WINDS"},"data":[0,0,0,0,0,0,0,0,0,0,0,0,0,0,0,0,0,0,0,0,0,0,0,0,0,0,0,0,0,0,0,0,0,0,0,0,0,0,0,0,0,0,0,0,0,0,0,0,0,0,0,0,0,0,0,0,0,0,1.713,1.713,0,1.7184,1.7185,1.7185,1.7167,1.7166,1.7165,1.7164,1.7219,1.7221,1.7223,0,0,0,0,0,0,0,0,0,0,0,0,0,1.7009,1.7011,1.713,1.713,1.7131,1.7184,1.7185,1.7185,1.7168,1.7166,1.7165,1.7163,1.7218,1.7221,1.7224,0,0,0,0,0,0,0,0,0,0,0,0,0,1.7062,1.7012,1.713,1.7129,1.7129,1.7184,1.7185,1.7185,1.7168,1.7166,1.7164,1.7163,1.7217,1.722,1.7224,1.7283,0,0,1.7236,1.7237,0,0,0,0,0,0,0,0,1.7059,1.7066,1.7128,1.7129,1.7129,1.7167,1.7162,1.7218,1.7168,1.7153,1.7164,1.7162,1.7203,1.7208,1.7222,1.7285,1.7288,1.7236,1.7238,1.724,1.7241,0,0,0,0,0,0,0,1.7055,1.7064,1.7151,1.7129,1.713,1.7125,1.713,1.7172,1.7187,1.7154,1.7153,1.716,1.7203,1.7218,1.7223,1.7289,1.7236,1.7239,1.7242,1.7243,1.7401,1.7403,0,0,0,0,0,0,1.7051,1.7061,1.7149,1.7153,1.7089,1.7128,1.7135,1.7157,1.7187,1.7189,1.7161,1.7159,1.7212,1.7218,1.7225,1.7294,1.724,1.7244,1.7246,1.7399,1.7402,1.7404,0,0,0,0,0,0,1.7049,1.7059,1.7147,1.7107,1.7117,1.7132,1.7157,1.7159,1.7174,1.7192,1.7194,1.7174,1.7211,1.7219,1.7268,1.7296,1.7245,1.7249,1.7397,1.74,1.7403,1.7434,0,0,0,0,0,0,1.7046,1.7059,1.7082,1.7107,1.712,1.7191,1.7159,1.7161,1.7181,1.7178,1.7205,1.7207,1.721,1.7263,1.7272,1.73,1.7252,1.7395,1.7398,1.7402,1.7431,1.7438,1.7444,0,0,0,0,0,1.7041,1.7089,1.7083,1.7094,1.7149,1.7192,1.7199,1.7202,1.7183,1.7206,1.7217,1.7207,1.7291,1.7268,1.7278,1.7308,1.7393,1.7397,1.7401,1.7428,1.7437,1.7444,0,0,0,0,0,0,1.7066,1.7092,1.7086,1.7143,1.7166,1.7189,1.7218,1.7211,1.7239,1.7236,1.7237,1.7244,1.7294,1.7306,1.7279,1.7365,1.7339,1.7346,1.7356,1.7364,1.7371,1.7366,1.7255,0,0,0,0,0,1.7078,1.7112,1.7133,1.7181,1.7192,1.7203,1.7222,1.7222,1.7246,1.7255,1.727,1.7292,1.7324,1.7345,1.7375,1.7433,1.7437,1.7458,1.7465,1.747,1.7475,1.7505,1.7514,1.7418,1.7418,1.7418,0,0,1.7104,1.7122,1.7143,1.7186,1.7204,1.7238,1.7212,1.7249,1.7274,1.7261,1.7308,1.7319,1.7344,1.7397,1.7422,1.7409,1.7503,1.7475,1.7479,1.7482,1.7511,1.752,1.7528,1.7421,1.742,1.742,0,0,1.7168,1.7185,1.7227,1.7245,1.7271,1.7278,1.7288,1.7312,1.7319,1.7366,1.7356,1.7386,1.744,1.7458,1.7475,1.7543,1.7534,1.7553,1.7587,1.7616,1.7624,1.7631,1.7654,1.7663,1.7558,1.7559,1.7559,0,1.7196,1.7247,1.7249,1.7287,1.7306,1.7295,1.7336,1.7353,1.7388,1.7401,1.7386,1.7454,1.747,1.7527,1.7543,1.7557,1.7568,1.755,1.7623,1.763,1.7636,1.7658,1.7667,1.7561,1.756,1.756,1.756,0,1.728,1.7316,1.7346,1.738,1.7402,1.7441,1.7448,1.747,1.7468,1.7476,1.7523,1.7542,1.7575,1.7589,1.7587,1.7645,1.7636,1.7622,1.7596,1.7647,1.7668,1.7677,1.7564,1.7563,1.7562,1.7562,0,0,1.7362,1.7395,1.7406,1.7421,1.7448,1.7476,1.7514,1.7546,1.7565,1.7589,1.762,1.7666,1.7653,1.7671,1.7671,1.7697,1.7749,1.768,1.7681,1.7691,1.7812,1.7822,1.7832,1.7743,1.7745,1.7746,1.781,0,1.7427,1.7495,1.7497,1.7559,1.7591,1.7581,1.7614,1.7634,1.7642,1.767,1.7679,1.7711,1.7691,1.7702,1.7727,1.7737,1.7773,1.7733,1.7772,1.7773,1.7765,1.7843,1.7854,1.7914,1.7818,1.782,1.7821,0,1.7513,1.7539,1.7604,1.7626,1.7639,1.7669,1.7698,1.7725,1.7747,1.7751,1.7771,1.7767,1.7805,1.7778,1.7829,1.7802,1.7818,1.7825,1.7827,1.7831,1.78,1.7848,1.7933,1.7941,1.7834,1.7833,1.7832,0,1.7565,1.7617,1.7662,1.7675,1.7701,1.7722,1.7734,1.7755,1.7774,1.7799,1.7811,1.784,1.7856,1.7878,1.7882,1.7861,1.7933,1.7906,1.7937,1.7937,1.7952,1.7951,1.804,1.7963,1.7963,1.7963,1.7963,0,1.7637,1.7677,1.7685,1.7713,1.7757,1.7758,1.7802,1.7812,1.783,1.7859,1.7851,1.7878,1.7882,1.7909,1.7912,1.7954,1.7961,1.7965,1.7965,1.7965,1.7965,1.7976,1.7971,1.7966,1.7965,1.7965,1.7964,0,1.7703,1.771,1.7759,1.7779,1.7786,1.7817,1.7835,1.7861,1.7867,1.7904,1.7912,1.7923,1.7955,1.7961,1.7999,1.8,1.805,1.8046,1.8043,1.8042,1.8072,1.8069,1.8171,1.8183,1.8099,1.81,1.81,0,1.7749,1.7779,1.7803,1.7822,1.7835,1.7865,1.7884,1.7887,1.7906,1.7933,1.7955,1.7987,1.8012,1.8063,1.8074,1.8103,1.8099,1.8133,1.8103,1.8102,1.8099,1.8096,1.8099,1.8138,1.8139,1.814,1.814,0,1.7829,1.783,1.7858,1.7887,1.791,1.7932,1.7954,1.7969,1.7974,1.7997,1.8029,1.8049,1.8087,1.8118,1.8146,1.8157,1.8149,1.815,1.8158,1.8158,1.8155,1.8156,1.8058,1.8147,1.8147,1.8146,1.8146,1.8145,1.7885,1.7911,1.7932,1.7962,1.7979,1.7999,1.8024,1.8033,1.8061,1.8092,1.8091,1.8127,1.8147,1.8183,1.8197,1.8224,1.8213,1.8226,1.8229,1.8231,1.8234,1.8151,1.8229,1.8229,1.8229,1.8229,1.8228,0,1.7964,1.7976,1.8005,1.8035,1.8058,1.8049,1.8072,1.8092,1.8124,1.8143,1.8167,1.8204,1.8234,1.8246,1.8275,1.8294,1.8291,1.8301,1.83,1.8302,1.8242,1.8232,1.8303,1.8303,1.8303,1.8303,1.8303,1.8303,1.8008,1.8051,1.8055,1.8105,1.8117,1.8152,1.8166,1.8183,1.8199,1.824,1.8264,1.8272,1.8289,1.8318,1.8344,1.8347,1.8358,1.8369,1.8371,1.8314,1.8307,1.83,1.829,1.8372,1.8372,1.8428,1.8429,1.8429]}]]